User: anonymous   Login
Location: Unspecified
(0.0000°N, 0.0000°E)
Time: 00:57:36
(UTC+00:00)
Language:

deb Explorer IX - Orbit

View from above orbital plane
View from above orbital plane
View from above satellite
View from above satellite

Ground track
Ground track

The orbit data is extracted from the following two-line orbital elements,

1 00085U 61004C   15186.13251422  .00005238  00000-0  11955-2 0  9996
2 00085 038.7738 208.6061 0421513 021.1270 340.6332 14.13164227674215
Epoch (UTC): 05 July 2015 03:10:49
Eccentricity: 0.0421513
inclination: 38.7738°
perigee height: 544 km
apogee height: 1153 km
right ascension of ascending node: 208.6061°
argument of perigee: 21.1270°
revolutions per day: 14.13164227
mean anomaly at epoch: 340.6332°
orbit number at epoch: 67421

The dashed part of the orbit path shows where the satellite is in the earth's shadow,  

DLR